Orbital Elements at Epoch 2459000.5 (2020-May-31.0) TDB
Reference: JPL 15 (heliocentric ecliptic J2000)
Element | Value | Uncertainty (1-sigma) | Units |
e | .1576580984523957 | 8.7907e-08 | |
a | 2.679083200958795 | 2.608e-08 | au |
q | 2.256704037899874 | 2.4246e-07 | au |
i | 9.449939081519164 | 8.9021e-06 | deg |
node | 188.3784503410357 | 3.6204e-05 | deg |
peri | 176.7132400296651 | 7.9578e-05 | deg |
M | 48.7922134800352 | 5.3718e-05 | deg |
tp | 2458783.417033170888 (2019-Oct-26.91703317) | 0.0002394 | TDB |
period | 1601.687287469702 4.39 | 2.3388e-05 6.403e-08 | d yr |
n | .2247629751552297 | 3.2819e-09 | deg/d |
Q | 3.101462364017716 | 3.0191e-08 | au |
|
| | Orbit Determination Parameters
Additional Information
|